4XDAM LLHZ-LLMZ

Flight info

Callsign 4XDAM
Flight time 0h 48m
Altitude 4500
Route CVFR
Aircraft C172/L-S/C

Departure

Time 2026-05-07 03:07
Airport Herzliya Airport (LLHZ)

Arrival

Time 2026-05-07 03:55
Airport Bar Yehuda Airfield (LLMZ)
Time Latitude Longitude Altitude Speed Heading
2026-05-07 03:00 32.18192 34.82829 89 ft 0 kts 288°
2026-05-07 03:03 32.18209 34.82846 88 ft 15 kts 87°
2026-05-07 03:03 32.18171 34.82899 87 ft 12 kts 110°
2026-05-07 03:03 32.18158 34.82942 90 ft 0 kts 109°
2026-05-07 03:05 32.18157 34.82943 90 ft 1 kts 109°
2026-05-07 03:05 32.18169 34.82981 92 ft 7 kts 99°
2026-05-07 03:06 32.18166 34.82998 89 ft 0 kts 109°
2026-05-07 03:06 32.18134 34.83104 91 ft 39 kts 108°
2026-05-07 03:06 32.17990 34.83583 131 ft 77 kts 112°
2026-05-07 03:06 32.17820 34.84162 367 ft 77 kts 107°
2026-05-07 03:07 32.17697 34.84790 591 ft 79 kts 82°
2026-05-07 03:07 32.18077 34.85231 815 ft 77 kts 22°
2026-05-07 03:07 32.18601 34.85480 1024 ft 82 kts 18°
2026-05-07 03:07 32.19145 34.85418 1206 ft 89 kts 327°
2026-05-07 03:08 32.19662 34.84870 1159 ft 106 kts 311°
2026-05-07 03:08 32.20129 34.84211 1177 ft 104 kts 308°
2026-05-07 03:08 32.20581 34.83539 1184 ft 105 kts 306°
2026-05-07 03:08 32.20995 34.82826 1199 ft 105 kts 304°
2026-05-07 03:09 32.21400 34.82110 1216 ft 105 kts 303°
2026-05-07 03:09 32.21682 34.81333 1202 ft 107 kts 277°
2026-05-07 03:09 32.21483 34.80506 1161 ft 109 kts 229°
2026-05-07 03:09 32.20779 34.80128 994 ft 120 kts 197°
2026-05-07 03:10 32.19969 34.79859 869 ft 120 kts 199°
2026-05-07 03:10 32.19177 34.79573 809 ft 116 kts 197°
2026-05-07 03:10 32.18416 34.79325 787 ft 112 kts 197°
2026-05-07 03:10 32.17674 34.79097 773 ft 110 kts 195°
2026-05-07 03:11 32.16938 34.78873 779 ft 107 kts 197°
2026-05-07 03:11 32.16227 34.78615 763 ft 108 kts 200°
2026-05-07 03:11 32.15530 34.78325 802 ft 103 kts 201°
2026-05-07 03:11 32.14845 34.78051 820 ft 103 kts 199°
2026-05-07 03:12 32.14163 34.77799 835 ft 104 kts 195°
2026-05-07 03:12 32.13462 34.77570 856 ft 105 kts 199°
2026-05-07 03:12 32.12776 34.77300 870 ft 105 kts 201°
2026-05-07 03:12 32.12086 34.76978 859 ft 106 kts 205°
2026-05-07 03:13 32.11428 34.76593 860 ft 106 kts 209°
2026-05-07 03:13 32.10751 34.76240 847 ft 106 kts 202°
2026-05-07 03:13 32.10049 34.75936 797 ft 107 kts 201°
2026-05-07 03:13 32.09360 34.75614 810 ft 105 kts 205°
2026-05-07 03:14 32.08688 34.75249 788 ft 107 kts 204°
2026-05-07 03:14 32.07988 34.75002 790 ft 106 kts 195°
2026-05-07 03:14 32.06563 34.74515 779 ft 106 kts 200°
2026-05-07 03:15 32.05852 34.74275 778 ft 106 kts 196°
2026-05-07 03:15 32.05132 34.74066 771 ft 107 kts 195°
2026-05-07 03:15 32.04417 34.73872 791 ft 105 kts 195°
2026-05-07 03:15 32.03711 34.73618 773 ft 106 kts 200°
2026-05-07 03:16 32.03008 34.73367 790 ft 106 kts 195°
2026-05-07 03:16 32.02286 34.73173 780 ft 107 kts 192°
2026-05-07 03:16 32.01559 34.73023 790 ft 105 kts 192°
2026-05-07 03:16 32.00828 34.72928 783 ft 106 kts 180°
2026-05-07 03:17 32.00101 34.73050 780 ft 107 kts 168°
2026-05-07 03:17 31.99405 34.73353 798 ft 107 kts 154°
2026-05-07 03:17 31.98765 34.73805 810 ft 108 kts 149°
2026-05-07 03:17 31.98129 34.74276 815 ft 107 kts 148°
2026-05-07 03:18 31.97515 34.74778 820 ft 107 kts 146°
2026-05-07 03:18 31.96909 34.75298 830 ft 107 kts 145°
2026-05-07 03:18 31.96305 34.75813 830 ft 108 kts 147°
2026-05-07 03:18 31.95683 34.76308 843 ft 107 kts 147°
2026-05-07 03:19 31.95062 34.76802 845 ft 108 kts 144°
2026-05-07 03:19 31.94584 34.77465 827 ft 110 kts 116°
2026-05-07 03:19 31.94429 34.78343 824 ft 109 kts 97°
2026-05-07 03:19 31.94352 34.79230 828 ft 108 kts 96°
2026-05-07 03:20 31.94172 34.80092 755 ft 113 kts 126°
2026-05-07 03:20 31.93632 34.80722 833 ft 105 kts 140°
2026-05-07 03:20 31.93091 34.81313 844 ft 107 kts 134°
2026-05-07 03:20 31.92634 34.81999 856 ft 107 kts 125°
2026-05-07 03:21 31.92238 34.82740 868 ft 107 kts 124°
2026-05-07 03:21 31.91870 34.83499 873 ft 107 kts 116°
2026-05-07 03:21 31.91597 34.84316 881 ft 107 kts 110°
2026-05-07 03:21 31.91366 34.85152 881 ft 108 kts 108°
2026-05-07 03:22 31.91143 34.85979 903 ft 106 kts 109°
2026-05-07 03:22 31.90911 34.86812 896 ft 108 kts 109°
2026-05-07 03:22 31.90735 34.87673 885 ft 109 kts 96°
2026-05-07 03:22 31.90690 34.88571 872 ft 109 kts 95°
2026-05-07 03:23 31.90593 34.89463 856 ft 110 kts 103°
2026-05-07 03:23 31.90290 34.90294 819 ft 112 kts 124°
2026-05-07 03:23 31.89777 34.90962 820 ft 110 kts 139°
2026-05-07 03:23 31.89213 34.91570 805 ft 110 kts 138°
2026-05-07 03:24 31.88656 34.92188 798 ft 110 kts 135°
2026-05-07 03:24 31.88190 34.92881 792 ft 109 kts 123°
2026-05-07 03:24 31.87879 34.93698 782 ft 110 kts 108°
2026-05-07 03:24 31.87618 34.94543 807 ft 111 kts 114°
2026-05-07 03:25 31.87271 34.95301 1101 ft 99 kts 135°
2026-05-07 03:25 31.86727 34.95733 1402 ft 89 kts 156°
2026-05-07 03:25 31.86175 34.96035 1616 ft 88 kts 154°
2026-05-07 03:25 31.85601 34.96290 1800 ft 94 kts 169°
2026-05-07 03:26 31.84911 34.96520 1864 ft 108 kts 158°
2026-05-07 03:26 31.84272 34.96993 1863 ft 109 kts 143°
2026-05-07 03:26 31.83675 34.97529 1825 ft 111 kts 153°
2026-05-07 03:26 31.82967 34.97897 1829 ft 109 kts 155°
2026-05-07 03:27 31.82354 34.98424 1873 ft 113 kts 131°
2026-05-07 03:27 31.82015 34.99204 2099 ft 105 kts 113°
2026-05-07 03:27 31.81750 35.00002 2297 ft 103 kts 109°
2026-05-07 03:27 31.81589 35.00533 2418 ft 103 kts 122°
2026-05-07 03:28 31.81099 35.01017 2761 ft 84 kts 159°
2026-05-07 03:28 31.80535 35.01305 2915 ft 91 kts 148°
2026-05-07 03:28 31.80145 35.01828 3217 ft 80 kts 127°
2026-05-07 03:28 31.79868 35.02400 3442 ft 78 kts 110°
2026-05-07 03:29 31.79694 35.03012 3624 ft 79 kts 110°
2026-05-07 03:29 31.79373 35.03544 3819 ft 77 kts 124°
2026-05-07 03:29 31.79214 35.04164 3987 ft 82 kts 97°
2026-05-07 03:29 31.79207 35.04815 4206 ft 80 kts 90°
2026-05-07 03:30 31.79207 35.05475 4408 ft 79 kts 90°
2026-05-07 03:30 31.79209 35.06158 4497 ft 93 kts 93°
2026-05-07 03:30 31.79204 35.06965 4551 ft 103 kts 90°
2026-05-07 03:30 31.79175 35.07824 4542 ft 108 kts 97°
2026-05-07 03:31 31.79134 35.08720 4497 ft 111 kts 90°
2026-05-07 03:31 31.79158 35.09619 4477 ft 108 kts 87°
2026-05-07 03:31 31.79153 35.10498 4469 ft 106 kts 96°
2026-05-07 03:31 31.79107 35.11367 4472 ft 106 kts 95°
2026-05-07 03:32 31.79084 35.12223 4487 ft 106 kts 86°
2026-05-07 03:32 31.79266 35.13055 4520 ft 105 kts 66°
2026-05-07 03:32 31.79624 35.13812 4537 ft 106 kts 57°
2026-05-07 03:32 31.80028 35.14545 4551 ft 107 kts 58°
2026-05-07 03:33 31.80423 35.15291 4558 ft 108 kts 58°
2026-05-07 03:33 31.80828 35.16013 4606 ft 106 kts 54°
2026-05-07 03:33 31.81287 35.16715 4564 ft 112 kts 51°
2026-05-07 03:33 31.81790 35.17394 4534 ft 112 kts 47°
2026-05-07 03:34 31.82316 35.18091 4462 ft 114 kts 53°
2026-05-07 03:34 31.82709 35.18885 4447 ft 111 kts 68°
2026-05-07 03:34 31.82934 35.19742 4422 ft 111 kts 78°
2026-05-07 03:34 31.83029 35.20650 4382 ft 111 kts 89°
2026-05-07 03:35 31.82994 35.21530 4425 ft 105 kts 95°
2026-05-07 03:35 31.82964 35.22402 4237 ft 121 kts 89°
2026-05-07 03:35 31.83051 35.23314 4394 ft 100 kts 83°
2026-05-07 03:35 31.83107 35.24099 4492 ft 93 kts 88°
2026-05-07 03:36 31.83114 35.24872 4511 ft 96 kts 90°
2026-05-07 03:36 31.83136 35.25685 4534 ft 102 kts 87°
2026-05-07 03:36 31.83117 35.26517 4499 ft 110 kts 102°
2026-05-07 03:36 31.82860 35.27355 4605 ft 93 kts 111°
2026-05-07 03:37 31.82626 35.28086 4484 ft 116 kts 115°
2026-05-07 03:37 31.82315 35.28908 4583 ft 107 kts 114°
2026-05-07 03:37 31.82014 35.29727 4570 ft 110 kts 114°
2026-05-07 03:37 31.81706 35.30541 4351 ft 118 kts 116°
2026-05-07 03:38 31.81262 35.31437 4328 ft 111 kts 120°
2026-05-07 03:38 31.81108 35.32224 4523 ft 94 kts 90°
2026-05-07 03:38 31.81119 35.33016 4552 ft 97 kts 86°
2026-05-07 03:38 31.81218 35.33805 4601 ft 100 kts 81°
2026-05-07 03:39 31.81341 35.34629 4549 ft 107 kts 80°
2026-05-07 03:39 31.81453 35.35547 4592 ft 103 kts 84°
2026-05-07 03:39 31.81541 35.36389 4632 ft 104 kts 82°
2026-05-07 03:39 31.81638 35.37280 4331 ft 130 kts 89°
2026-05-07 03:40 31.81539 35.38329 4222 ft 128 kts 102°
2026-05-07 03:40 31.81323 35.39384 3893 ft 140 kts 107°
2026-05-07 03:40 31.81017 35.40523 3525 ft 148 kts 111°
2026-05-07 03:40 31.80602 35.41572 3484 ft 136 kts 120°
2026-05-07 03:41 31.80125 35.42503 3386 ft 135 kts 121°
2026-05-07 03:41 31.79711 35.43507 3403 ft 125 kts 116°
2026-05-07 03:41 31.79374 35.44418 3510 ft 122 kts 113°
2026-05-07 03:41 31.79021 35.45340 3500 ft 127 kts 123°
2026-05-07 03:42 31.78380 35.46047 3477 ft 127 kts 153°
2026-05-07 03:42 31.77533 35.46289 3485 ft 126 kts 183°
2026-05-07 03:42 31.76680 35.46065 3475 ft 127 kts 187°
2026-05-07 03:42 31.75812 35.46226 3477 ft 126 kts 171°
2026-05-07 03:43 31.74957 35.46416 3480 ft 127 kts 171°
2026-05-07 03:43 31.74090 35.46611 3501 ft 127 kts 171°
2026-05-07 03:43 31.73215 35.46660 3499 ft 127 kts 192°
2026-05-07 03:43 31.72363 35.46393 3501 ft 127 kts 198°
2026-05-07 03:44 31.71523 35.46092 3505 ft 126 kts 199°
2026-05-07 03:44 31.70680 35.45789 3503 ft 127 kts 198°
2026-05-07 03:44 31.69834 35.45486 3502 ft 127 kts 198°
2026-05-07 03:44 31.68987 35.45182 3502 ft 126 kts 198°
2026-05-07 03:45 31.68157 35.44885 3501 ft 126 kts 198°
2026-05-07 03:45 31.67316 35.44583 3503 ft 127 kts 198°
2026-05-07 03:45 31.66468 35.44280 3502 ft 127 kts 198°
2026-05-07 03:45 31.65621 35.43979 3504 ft 127 kts 198°
2026-05-07 03:46 31.64770 35.43678 3504 ft 128 kts 198°
2026-05-07 03:46 31.63919 35.43375 3503 ft 128 kts 198°
2026-05-07 03:46 31.63070 35.43074 3504 ft 127 kts 198°
2026-05-07 03:46 31.62219 35.42771 3505 ft 128 kts 198°
2026-05-07 03:47 31.61368 35.42469 3501 ft 127 kts 198°
2026-05-07 03:47 31.60534 35.42173 3500 ft 126 kts 198°
2026-05-07 03:47 31.59691 35.41875 3499 ft 126 kts 198°
2026-05-07 03:47 31.58850 35.41579 3499 ft 126 kts 198°
2026-05-07 03:48 31.58011 35.41284 3500 ft 126 kts 198°
2026-05-07 03:48 31.57166 35.40987 3499 ft 127 kts 198°
2026-05-07 03:48 31.56320 35.40690 3500 ft 127 kts 198°
2026-05-07 03:48 31.55458 35.40449 3497 ft 128 kts 191°
2026-05-07 03:49 31.54584 35.40275 3501 ft 127 kts 191°
2026-05-07 03:49 31.53720 35.40104 3498 ft 127 kts 191°
2026-05-07 03:49 31.52845 35.39932 3498 ft 127 kts 191°
2026-05-07 03:49 31.51973 35.39762 3498 ft 127 kts 189°
2026-05-07 03:50 31.51084 35.39722 3502 ft 128 kts 182°
2026-05-07 03:50 31.50196 35.39709 3496 ft 128 kts 182°
2026-05-07 03:50 31.49299 35.39689 3472 ft 130 kts 182°
2026-05-07 03:50 31.48389 35.39648 3435 ft 131 kts 184°
2026-05-07 03:51 31.47476 35.39634 3395 ft 132 kts 182°
2026-05-07 03:51 31.46564 35.39620 3341 ft 132 kts 182°
2026-05-07 03:51 31.45641 35.39608 3286 ft 131 kts 182°
2026-05-07 03:51 31.44713 35.39597 3186 ft 134 kts 182°
2026-05-07 03:52 31.43767 35.39586 3016 ft 139 kts 182°
2026-05-07 03:52 31.42786 35.39572 2767 ft 142 kts 182°
2026-05-07 03:52 31.41808 35.39556 2512 ft 133 kts 182°
2026-05-07 03:52 31.40924 35.39542 2253 ft 132 kts 182°
2026-05-07 03:53 31.39969 35.39533 1996 ft 140 kts 182°
2026-05-07 03:53 31.38961 35.39517 1510 ft 151 kts 182°
2026-05-07 03:53 31.37902 35.39497 1016 ft 153 kts 182°
2026-05-07 03:53 31.36840 35.39473 428 ft 140 kts 183°
2026-05-07 03:54 31.36075 35.39459 -95 ft 97 kts 186°
2026-05-07 03:54 31.35445 35.39350 -521 ft 80 kts 191°
2026-05-07 03:54 31.34930 35.39252 -701 ft 82 kts 187°
2026-05-07 03:54 31.34417 35.39175 -909 ft 70 kts 190°
2026-05-07 03:55 31.33947 35.39086 -1085 ft 68 kts 194°
2026-05-07 03:55 31.33478 35.38986 -1183 ft 71 kts 191°
2026-05-07 03:55 31.33055 35.38897 -1233 ft 49 kts 189°
2026-05-07 03:55 31.32761 35.38843 -1239 ft 37 kts 190°
2026-05-07 03:56 31.32616 35.38810 -1245 ft 9 kts 114°
2026-05-07 03:56 31.32755 35.38842 -1239 ft 32 kts
2026-05-07 03:56 31.32921 35.38861 -1249 ft 16 kts 338°
2026-05-07 03:56 31.32964 35.38826 -1237 ft 6 kts 299°
2026-05-07 03:57 31.32974 35.38831 -1241 ft 0 kts 126°